User: anonymous
Location: Unspecified
(0.0000°N, 0.0000°E)
Time: 09:01:45
(UTC+02:00)
Language:

Resurs 01 Rocket - Orbit

View from above orbital plane
View from above orbital plane
View from above satellite
View from above satellite

Ground track
Ground track

The orbit data is extracted from the following two-line orbital elements,

1 23343U 94074B   14210.09988213  .00000234  00000-0  41643-4 0   674
2 23343 098.2249 214.7499 0006919 197.2266 202.9907 14.76152410 61282
Epoch (UTC): 29 July 2014 02:23:49
Eccentricity: 0.0006919
inclination: 98.2249°
perigee height: 636 km
apogee height: 646 km
right ascension of ascending node: 214.7499°
argument of perigee: 197.2266°
revolutions per day: 14.76152410
mean anomaly at epoch: 202.9907°
orbit number at epoch: 6128

The dashed part of the orbit path shows where the satellite is in the earth's shadow,  

DLR